Simultaneous Nadir Overpasses (SNOs) Predictions

Prediction of SNOs between AQUA and METOP-B Satellite Orbit:

Table of predicted SNOs for the next 14.0 days since TLE Epoch: 5/11/2018
Index Date (AQUA) Time (AQUA) Lat,Lon (AQUA) SZA (AQUA ) Date (METOP-B) Time (METOP-B) Lat,Lon (METOP-B) SZA (METOP-B ) Distance(km) Time Diff (sec)
1 05/13/2018 21:11:21 73.88,-143.53 55.31 05/13/2018 21:10:09 73.86,-143.59 55.31 2.96 72
2 05/13/2018 22:00:48 -73.98, 23.88 124.59 05/13/2018 22:00:49 -73.97, 24.00 124.60 3.88 1
3 05/13/2018 22:50:17 74.03,-168.59 55.46 05/13/2018 22:51:27 74.03,-168.51 55.45 2.57 70
4 05/16/2018 16:45:34 73.88, -77.09 54.65 05/16/2018 16:44:28 73.89, -77.10 54.68 1.61 66
5 05/16/2018 17:35:01 -73.98, 90.32 125.25 05/16/2018 17:35:09 -73.96, 90.38 125.28 3.01 8
6 05/16/2018 18:24:33 74.19,-102.51 54.96 05/16/2018 18:25:44 74.16,-101.77 54.92 22.57 71
7 05/19/2018 12:19:48 73.88, -10.67 54.04 05/19/2018 12:18:49 73.87, -10.74 54.04 2.41 59
8 05/19/2018 13:09:15 -73.98, 156.76 125.87 05/19/2018 13:09:29 -73.99, 156.87 125.86 3.56 14
9 05/19/2018 13:58:51 74.40, -36.58 54.57 05/19/2018 14:00:00 74.39, -34.78 54.51 53.64 69
10 05/22/2018 07:54:02 73.90, 55.74 53.48 05/22/2018 07:53:09 73.90, 55.74 53.49 0.64 53
11 05/22/2018 08:43:29 -73.99,-136.82 126.43 05/22/2018 08:43:50 -73.97,-136.77 126.45 2.65 21
12 05/22/2018 09:33:10 74.67, 29.20 54.29 05/22/2018 09:34:15 74.67, 32.35 54.20 92.37 65
13 05/25/2018 03:28:16 73.92, 122.13 52.98 05/25/2018 03:27:29 73.93, 122.22 52.99 3.06 47
14 05/25/2018 04:17:41 -73.96, -70.30 127.00 05/25/2018 04:18:10 -73.96, -70.40 127.00 3.17 29




NCC Satellite Simultaneous Nadir Overpasses (SNOs) Prediction Service
